Dewpoint
57 57 58 58 58 58 59 58 59 59 60 60 60 60 61 61 60 61 61 61 61 60 61 61 60 60 60 60 61 60 50 28 23 22 21 27 43 55 57 59 58 59 58 40 34 33 31 28 30 29 14 8 18 17 23 23 31 27 20 19 17 18 18 21 17 20 20 19 20 24 26 26 23 24 21 22 16 18 19 17 15 15 15 15 17 18 18 20
57 57 58 58 58 58 58 58 59 60 60 60 60 60 61 60 60 61 61 61 61 61 60 60 60 60 59 60 60 58 37 29 21 21 22 36 55 56 57 57 58 59 54 35 32 35 29 29 31 26 12 9 19 20 22 22 24 24 21 16 14 21 20 23 18 21 17 17 23 25 25 26 25 21 19 20 17 18 17 18 18 15 15 16 17 18 18 19
57 57 57 57 57 58 58 59 59 60 60 60 60 60 61 61 60 59 59 61 61 60 60 60 59 59 59 60 58 55 34 23 19 19 20 49 54 55 56 56 58 57 41 35 34 34 32 32 33 26 22 13 16 16 22 21 24 25 16 16 20 23 23 18 20 22 20 19 22 24 23 23 23 23 26 26 18 21 17 15 15 15 14 15 17 18 18 19
57 56 57 57 58 58 58 58 59 59 60 60 60 60 61 61 61 60 59 61 61 61 60 60 59 59 59 59 59 46 28 21 16 19 22 49 53 55 55 56 55 52 41 38 39 40 38 35 26 23 22 17 21 23 20 22 18 22 24 19 20 24 17 17 19 19 20 23 22 23 24 22 23 24 27 27 19 20 20 17 17 15 14 15 17 18 18 18
56 57 57 58 58 57 58 58 59 59 60 60 60 60 61 61 61 59 58 58 60 60 60 60 59 59 58 58 55 32 27 17 17 22 23 50 53 54 54 57 54 46 44 40 33 38 38 32 25 27 22 17 28 23 20 21 22 27 19 23 21 18 17 17 20 20 21 22 23 23 21 22 24 24 25 22 20 20 22 20 23 17 15 16 17 18 18 18
56 57 57 57 57 58 58 58 59 59 60 60 60 60 60 61 60 59 60 60 60 59 60 60 59 59 59 55 37 34 23 12 23 20 45 49 51 52 52 55 49 41 32 26 22 20 21 22 23 26 26 21 20 20 21 22 28 19 22 19 19 17 14 16 20 21 23 22 22 23 23 22 22 22 24 23 23 26 29 25 21 18 18 17 18 18 18 19
56 57 57 57 57 58 58 58 58 59 59 59 60 60 61 60 60 59 59 60 60 61 60 59 59 58 58 52 36 21 18 18 21 21 45 50 50 49 53 50 44 33 29 25 25 22 24 22 23 26 27 24 20 20 27 29 29 27 20 15 13 17 15 18 19 21 22 23 22 23 25 21 22 19 23 25 26 28 24 20 20 22 23 21 19 19 19 19
57 57 57 57 56 57 57 58 58 59 60 60 60 61 61 60 60 59 59 61 61 59 59 59 59 58 54 37 29 19 17 16 17 28 42 46 32 32 43 36 32 28 25 26 26 23 25 23 21 29 23 23 23 26 30 24 28 22 17 19 11 16 16 18 19 20 22 23 22 21 19 20 21 19 21 21 21 22 21 22 23 22 21 21 21 21 21 20
57 57 57 57 57 57 58 58 58 59 59 60 60 61 60 60 60 60 60 60 60 59 58 58 57 55 50 33 21 12 12 16 19 23 25 21 23 31 33 24 32 22 23 22 26 25 23 25 27 25 21 24 27 28 29 24 21 24 19 22 17 14 20 18 18 19 21 22 21 20 20 19 21 22 19 20 19 20 21 19 18 17 17 18 19 19 19 20
57 57 57 57 57 57 58 58 59 59 59 60 60 60 60 60 59 59 59 60 60 59 58 58 56 52 35 26 20 8 12 17 21 25 19 22 24 32 30 32 27 23 16 17 21 24 24 24 23 24 24 25 26 24 25 28 23 29 28 23 17 19 22 15 14 17 18 21 20 20 19 17 18 17 16 20 20 22 17 16 15 15 15 17 18 20 19 18
57 57 57 57 57 58 58 58 58 58 59 59 60 60 60 59 58 59 59 59 59 59 58 57 51 33 20 16 13 10 16 18 23 21 17 23 22 25 26 30 26 25 18 16 17 23 26 26 27 30 32 26 22 22 26 25 28 26 24 20 20 15 16 9 14 14 15 14 19 20 17 17 16 18 15 19 20 18 15 14 14 15 15 15 15 15 17 16
57 57 57 56 57 58 58 58 58 58 59 59 60 61 60 58 57 58 58 58 59 58 57 58 48 22 20 15 13 13 15 19 25 17 16 21 20 24 31 32 25 24 18 15 16 20 28 33 32 30 19 29 18 22 20 26 26 24 21 13 17 14 8 4 14 15 16 14 19 17 17 16 17 16 17 19 20 17 14 13 14 14 13 14 14 13 12 13
57 56 56 57 57 58 58 57 58 59 58 59 59 57 56 57 57 57 58 57 58 57 57 54 43 35 30 16 13 17 21 21 20 18 18 19 20 24 29 28 25 25 21 17 17 22 32 30 20 19 26 29 29 13 21 24 22 24 20 16 14 14 11 3 19 20 8 14 18 16 0 13 14 16 16 19 18 15 13 12 13 12 12 13 13 13 14 13
56 55 55 56 58 57 58 57 58 59 59 58 58 56 55 56 57 57 58 56 57 57 58 51 32 28 27 14 15 20 22 29 16 16 17 20 20 21 21 22 23 23 25 20 23 26 29 28 20 23 31 24 21 29 24 22 22 4 16 18 10 9 9 12 19 22 11 17 11 15 3 2 6 12 16 19 17 14 12 11 11 11 12 11 12 11 10 7
54 54 55 57 57 57 57 58 58 58 57 57 58 58 57 55 56 57 56 50 53 58 57 45 31 33 19 16 16 17 44 17 14 15 17 20 20 21 20 21 21 20 18 20 21 23 23 28 26 24 19 28 28 20 17 18 16 19 12 7 14 5 10 16 20 15 14 11 12 12 8 11 12 14 15 18 17 13 11 10 10 11 10 10 10 9 5 5
56 55 57 57 57 56 56 57 57 57 57 57 57 56 55 54 55 56 57 53 55 56 43 29 30 18 18 13 9 31 17 14 13 16 18 22 21 21 21 21 21 15 9 9 18 19 22 24 22 22 24 25 21 17 12 14 15 13 5 -0 7 13 15 17 18 23 14 10 14 14 6 12 7 13 13 15 14 11 10 10 10 10 9 9 10 9 6 2
56 57 57 57 57 56 57 56 56 57 57 57 57 56 51 51 51 55 53 49 41 39 18 22 28 33 14 16 15 15 15 16 18 17 19 23 22 21 21 20 20 17 17 10 11 15 17 15 20 16 24 22 21 19 11 10 5 6 17 8 13 12 15 15 20 20 14 15 9 15 11 10 8 10 12 14 12 10 9 9 9 9 9 10 7 4 4 4
56 56 57 57 57 55 56 56 56 56 57 58 56 55 42 50 44 43 40 39 42 35 34 31 28 19 16 13 13 15 16 16 17 17 19 23 23 23 22 17 22 15 16 12 6 10 15 15 20 8 16 20 21 10 4 -14 -8 -6 2 8 12 16 19 17 16 16 14 17 11 10 10 10 10 12 12 14 11 9 9 9 9 9 10 10 8 5 3 3
56 57 57 57 56 57 56 56 56 56 57 55 56 57 54 49 37 23 27 28 29 20 18 18 19 12 11 11 10 15 17 19 20 19 18 22 25 23 25 23 16 12 15 5 7 13 17 19 19 15 13 17 19 20 3 1 7 9 10 10 11 13 15 12 13 17 17 13 13 10 9 10 11 11 11 9 9 9 9 10 10 8 7 8 11 9 4 4
56 57 57 56 57 56 56 56 56 57 55 46 44 41 39 26 22 22 26 27 19 21 21 21 22 19 16 16 15 17 19 15 12 14 18 21 23 21 20 17 19 15 21 9 14 11 21 13 13 9 15 17 20 21 18 19 17 16 17 13 15 16 13 17 18 16 19 15 11 10 12 12 11 11 9 9 10 10 8 4 3 3 3 4 5 8 9 4
56 56 56 56 56 55 55 55 56 55 52 44 43 40 32 24 21 14 18 26 24 27 20 20 22 18 14 15 16 18 14 11 13 14 18 24 25 16 16 20 18 5 10 21 11 17 14 3 8 15 16 17 19 23 19 15 15 13 14 17 11 6 3 5 7 11 20 12 11 12 13 12 12 11 10 10 9 7 5 3 3 3 3 3 5 7 7 5
55 55 55 55 55 55 55 55 56 54 49 42 41 37 35 29 27 24 24 16 25 29 23 22 23 17 17 18 17 18 15 11 8 12 18 24 24 14 21 18 15 8 19 17 14 9 6 6 13 17 19 22 20 18 18 11 10 15 8 9 6 6 9 10 12 17 18 12 7 13 13 12 12 11 10 9 9 8 6 3 3 2 2 3 4 6 6 6
54 54 55 55 54 55 55 56 53 52 41 38 36 37 36 40 44 43 29 22 19 24 23 22 19 17 16 17 20 17 12 12 14 12 18 23 26 25 25 20 21 24 18 15 4 8 3 7 15 19 21 21 13 19 17 15 16 9 9 8 6 10 5 2 4 13 15 13 11 13 12 11 11 9 9 10 7 6 6 6 6 6 1 1 2 5 5 2
52 53 55 55 55 54 56 54 53 43 39 39 39 36 39 43 43 38 22 15 14 18 24 22 19 19 19 16 21 17 13 17 18 12 20 20 23 25 27 20 18 21 20 20 13 7 1 8 19 18 15 10 10 14 15 12 7 13 13 9 8 6 7 5 5 7 12 16 17 13 12 13 11 7 7 9 10 7 8 5 6 6 8 7 7 4 6 -0
52 53 54 55 55 54 54 49 44 41 41 37 39 41 42 42 42 30 23 15 17 11 26 22 22 17 20 22 27 20 22 19 19 19 22 19 22 26 23 26 20 18 20 23 19 16 13 18 22 15 12 10 8 7 11 11 9 8 9 9 5 8 9 8 7 5 3 6 16 8 3 3 11 9 7 7 7 5 5 3 3 3 2 4 0 1 3 3
52 52 53 54 55 54 52 35 28 42 35 29 37 43 41 41 43 37 19 14 -3 10 21 14 21 15 21 18 22 25 21 17 18 18 26 19 25 25 24 18 21 17 19 19 13 15 15 19 13 10 11 13 9 5 5 13 8 4 6 13 10 10 10 7 2 5 4 -1 8 9 -2 -3 11 11 9 10 7 6 6 2 1 -0 1 2 1 1 0 -2
52 52 52 54 55 49 30 29 29 39 28 36 43 43 41 43 42 39 25 11 4 8 10 20 19 13 25 21 23 22 9 13 16 22 19 20 21 24 18 16 21 24 22 22 17 2 19 17 15 14 12 12 9 6 5 7 7 7 7 12 10 6 5 4 5 6 8 16 14 12 -0 -7 -8 8 12 10 7 6 6 4 1 1 0 1 1 3 3 0
52 52 52 55 53 44 23 41 39 30 30 45 42 41 43 43 39 32 19 -5 -11 21 13 20 18 24 23 25 20 14 12 18 15 14 24 25 22 21 20 16 16 17 22 16 -2 13 16 15 14 11 10 11 6 5 10 12 6 7 10 15 9 8 6 7 7 6 9 7 6 5 11 -5 -4 4 11 11 6 7 4 3 4 4 3 3 4 4 4 1
53 53 51 54 53 52 46 42 36 31 41 43 40 41 43 36 30 20 13 -7 2 16 21 19 24 18 23 25 20 22 20 21 15 19 25 23 19 21 11 15 22 23 22 13 5 9 16 15 19 10 9 9 8 10 12 15 8 12 14 13 12 13 10 7 6 5 5 -2 -3 1 4 -6 -2 5 9 12 11 7 2 1 3 5 3 4 4 3 4 1
53 54 51 52 49 43 41 39 40 43 42 39 40 41 36 32 22 16 -5 -14 18 4 21 20 21 16 23 17 18 21 17 19 23 23 23 16 16 22 23 23 20 16 11 19 14 13 14 25 25 22 15 10 14 15 14 14 11 17 14 8 5 2 2 7 6 1 -3 -10 -1 1 1 -2 -3 0 8 10 12 10 1 1 3 5 4 4 4 2 5 0
53 53 52 51 41 43 34 28 37 41 41 41 41 38 30 20 14 4 -14 -8 21 18 21 18 17 25 21 14 12 19 22 22 19 22 18 22 17 20 20 13 19 14 14 13 14 15 17 19 21 21 27 21 15 11 16 16 18 13 6 4 2 -1 2 5 -1 4 -10 -5 -1 2 -0 -0 -1 -2 12 5 2 4 2 -1 1 1 3 4 2 3 4 1
53 53 50 41 41 42 32 29 41 39 38 39 36 29 24 9 17 1 -4 18 5 14 9 13 21 22 21 22 17 17 16 20 19 21 17 19 18 18 19 11 15 -1 3 5 8 14 12 12 16 16 28 14 12 7 8 15 15 11 8 4 1 -1 -2 -4 -2 -4 -5 -4 -2 0 1 1 -2 -2 11 0 1 2 4 4 2 1 3 3 2 1 5 2
53 52 50 45 43 37 37 42 40 40 38 37 29 26 18 11 -9 -3 1 9 -1 14 11 21 21 21 19 17 15 19 20 14 19 18 21 20 17 18 21 20 18 -4 -3 3 7 7 10 12 8 12 13 18 10 2 1 2 6 8 8 2 -1 -7 -11 -8 -6 -9 -7 -3 -2 0 2 1 2 4 6 0 1 4 4 6 5 2 4 1 1 2 2 0
52 46 39 42 40 41 41 40 40 42 35 36 26 26 18 7 -12 24 3 11 4 21 22 19 20 18 16 9 15 17 11 14 17 16 20 15 17 14 15 20 20 15 9 12 1 5 -1 1 7 7 -0 10 10 8 6 5 7 9 6 3 -5 -7 -9 -6 -10 -8 -3 -1 -0 1 1 -7 -1 2 5 1 2 3 4 3 5 4 4 2 2 3 -2 -3
52 45 40 39 37 39 40 39 38 37 28 24 18 19 6 -7 -2 -1 3 13 17 20 17 20 15 13 11 16 16 17 13 11 19 17 16 15 12 16 13 17 21 18 16 3 2 1 3 -1 5 11 11 12 7 11 15 13 8 8 7 7 5 1 5 -4 -3 -7 -2 1 1 -3 0 1 2 8 12 4 3 5 9 4 7 3 5 2 0 -2 -3 -3
46 41 39 35 38 38 39 41 37 30 23 18 16 13 2 2 -3 7 9 20 20 16 19 16 16 12 11 11 15 11 15 11 13 13 11 16 17 13 17 20 17 19 12 2 -0 -0 7 -1 4 13 14 7 9 12 11 8 -1 3 4 -0 2 5 5 -3 4 5 3 -2 1 -4 5 6 5 3 3 2 3 4 6 6 5 3 -0 -3 -3 -3 -4 -4
39 38 30 32 34 37 40 37 34 26 21 17 16 1 8 9 15 15 30 19 20 21 13 6 8 6 4 5 9 12 12 16 13 8 5 16 11 17 16 14 20 19 19 12 6 5 -2 2 11 12 6 10 10 13 14 17 15 9 2 4 8 10 7 2 -1 -2 -2 -1 -0 2 3 5 3 1 2 4 3 5 6 7 5 0 -3 -5 -4 -4 -4 -4
39 33 31 28 30 39 40 40 33 26 24 20 19 24 19 15 23 24 25 22 23 20 12 10 6 6 2 8 12 9 15 9 8 12 7 14 12 19 15 12 15 19 21 20 8 9 9 4 3 5 10 11 12 1 2 14 16 10 7 7 5 -1 0 5 -3 -2 -2 -2 1 3 5 5 5 5 2 3 3 5 6 6 2 -3 -5 -5 -5 -4 -5 -5
33 28 20 24 31 40 39 32 26 20 14 18 15 20 18 18 24 25 25 24 23 20 14 12 5 10 9 8 10 13 12 7 9 9 2 7 5 12 11 15 12 22 22 22 17 18 12 -1 3 9 8 9 3 2 -2 -2 7 16 13 4 9 6 0 0 -2 3 3 -0 -0 -0 3 0 4 5 -1 3 7 6 4 3 -2 -4 -4 -3 -3 -5 -5 -4
29 19 11 22 31 39 40 31 25 21 19 15 12 10 20 18 23 26 27 24 19 12 11 9 15 9 12 10 12 9 15 11 12 10 9 11 12 17 12 21 14 20 22 20 17 18 10 6 -3 4 8 6 -0 2 -4 -1 0 6 4 1 4 -4 7 6 1 -1 1 1 1 -1 -3 -1 4 -2 1 6 5 4 1 -2 -3 -3 -1 -1 -4 -5 -5 -5
28 19 13 25 31 37 26 24 21 21 20 20 22 22 23 14 21 23 28 27 28 24 16 13 15 13 13 11 8 16 11 12 14 9 13 14 7 2 20 21 23 19 19 14 9 9 -1 5 1 2 5 2 -1 1 1 4 5 5 4 4 3 3 1 1 0 3 -5 -4 -2 -1 -2 2 4 -1 6 3 3 2 -1 -2 -0 2 -0 -2 -4 -5 -5 -4
22 10 15 27 32 30 25 18 18 22 21 16 17 23 21 34 20 21 24 25 23 21 23 19 20 20 17 14 13 18 13 10 13 10 14 9 14 7 14 22 23 24 13 3 3 11 8 7 6 6 6 1 1 2 9 12 6 5 6 5 5 0 1 -0 -1 0 2 1 1 3 2 3 5 -0 4 3 2 1 0 1 2 1 -1 -3 -4 -4 -4 -3
18 11 20 28 30 27 15 13 22 23 18 23 25 23 24 22 18 19 19 22 17 21 19 19 18 13 13 17 18 18 16 7 11 7 13 18 17 17 17 20 22 21 17 10 8 13 25 4 -1 0 0 7 8 4 13 9 3 -1 6 10 5 5 1 2 2 4 2 2 1 2 1 1 -1 2 2 3 3 2 3 3 2 -0 -2 -4 -4 -5 -4 -3
17 10 14 28 30 29 21 9 11 13 15 19 22 21 24 23 22 21 20 21 18 18 17 18 16 18 16 21 20 16 15 -1 8 9 8 18 13 20 22 23 20 16 6 4 -1 6 -3 1 0 -1 -1 -0 -1 0 2 6 2 0 3 5 6 4 3 1 1 -4 1 3 3 -1 -5 -2 1 3 3 2 2 3 4 3 1 -1 -3 -4 -4 -3 -3 -2
17 21 26 24 24 22 10 18 17 15 20 13 15 14 17 16 23 23 21 17 23 19 15 16 16 19 17 19 18 21 20 5 6 10 11 14 13 22 21 21 20 17 18 20 23 18 3 5 -0 -7 -5 -4 -4 -3 -1 1 2 2 3 4 4 1 4 3 -1 -3 -1 2 0 -1 -2 0 2 3 2 3 4 4 3 1 0 -2 -3 -3 -3 -2 -2 0
16 3 13 13 17 21 23 23 21 18 16 9 9 9 16 14 17 20 22 23 22 24 18 20 22 19 18 15 15 18 17 17 6 5 8 9 12 17 23 19 22 22 23 28 24 12 -3 7 7 3 -3 -1 2 2 0 5 2 3 5 6 6 1 -3 -1 -4 -4 -3 0 0 1 2 1 1 2 2 3 4 2 0 -1 -2 -2 -2 -2 -2 -1 0 4
20 16 12 2 17 15 17 20 22 21 13 19 8 7 9 14 10 16 25 10 22 19 23 22 21 14 14 14 13 16 19 17 15 9 7 9 10 15 18 21 23 23 28 28 21 4 -4 -3 1 6 3 4 3 2 2 5 3 4 4 4 4 -1 -5 -8 -6 -2 1 1 -3 1 2 3 1 1 3 3 2 0 -1 -1 -2 -2 -1 -1 -1 -0 9 5
18 16 20 18 19 5 17 10 22 21 22 22 14 18 14 9 13 9 16 16 22 21 19 19 19 21 19 17 12 4 9 11 8 3 10 11 12 14 15 18 18 26 25 13 12 4 -1 -4 -3 0 1 5 5 3 3 4 5 4 3 1 -0 -2 -4 -8 -6 -0 2 2 -0 2 2 1 1 2 3 2 0 -1 -1 -1 -1 -1 0 -0 -1 3 4 3
23 20 21 21 11 10 18 18 23 22 22 23 23 17 11 11 11 13 14 20 20 16 17 4 11 18 23 23 14 9 14 0 3 4 8 7 8 11 7 9 17 14 14 12 12 -2 1 -2 -1 -1 5 4 3 3 3 2 2 2 -1 -1 -5 -4 -4 -2 -1 2 2 3 3 2 1 1 2 3 2 1 -0 -1 -1 -0 0 0 -0 -0 2 4 3 2
13 14 11 21 22 19 19 20 22 20 19 22 15 16 17 15 14 19 19 15 5 11 20 17 16 21 23 22 15 11 13 5 2 3 7 12 11 10 8 11 8 13 10 6 8 4 -0 1 6 -0 -0 4 3 2 2 2 0 -1 0 -1 -4 -1 1 4 5 4 5 3 1 1 1 1 3 4 1 0 -0 0 0 0 1 0 -1 1 4 2 1 0
20 22 20 17 17 16 21 19 18 19 16 18 16 17 24 22 19 20 19 24 13 12 19 13 20 23 21 20 20 17 20 21 20 14 15 16 11 14 11 12 15 12 9 2 4 4 4 3 -2 -5 -0 2 1 0 1 0 -0 -1 -0 -2 -0 2 3 4 4 4 2 1 1 1 -0 1 2 -0 0 -0 0 0 0 1 1 -1 -1 3 -1 -1 -1 3
24 23 25 23 15 22 15 19 19 21 11 10 22 21 19 20 20 21 16 22 25 26 23 22 22 20 16 15 13 17 20 22 23 23 23 22 20 20 19 18 18 13 5 4 4 -1 -3 -2 1 -4 2 2 1 2 1 0 1 -7 -5 -2 -1 3 4 4 3 2 0 -1 -0 -1 1 2 -0 1 -0 0 1 1 1 0 -1 -1 1 -2 -3 -1 3 1